Location: Gleizolles
(44.4833°N, 6.7667°E)
Time: 13:54:04
(UTC+00:00)

Vanguard 1 - Pass Details

Date: 28 June 2024
Orbit: 650 x 3826 km, 34.3° (Epoch: 15 July)

Event Time Altitude Azimuth Distance (km) Brightness Sun altitude
Rises 12:26:24 0° 261° (W) 4,896 13.8 66.4°
Reaches altitude 10° 12:30:37 10° 253° (WSW) 3,400 13.3 66.0°
Maximum altitude 12:37:17 31° 194° (SSW) 1,576 12.2 65.4°
Drops below altitude 10° 12:41:48 10° 131° (SE) 2,266 12.1 64.9°
Sets 12:44:03 0° 120° (ESE) 3,052 12.6 64.6°
